Regional Weather Roundup
Issued by NWS

Current Version | Previous Version | Text Only | Print | Product List | Glossary On
Versions: 1 2 3 4 5 6 7 8 9 10 11 12 13 14 15 16 17 18 19 20 21 22 23 24 25 26 27 28 29 30 31 32 33 34 35 36 37 38 39 40 41 42 43 44 45 46 47 48 49 50
000
ASUS44 KFWD 191415
RWRTX
NORTH TEXAS HOURLY WEATHER ROUNDUP
NATIONAL WEATHER SERVICE FORT WORTH TX
900 AM CDT TUE SEP 19 2017

NOTE: "FAIR" INDICATES FEW OR NO CLOUDS BELOW 12,000 FEET WITH NO
SIGNIFICANT WEATHER AND/OR OBSTRUCTIONS TO VISIBILITY.

TXZ118-119-191500-
DALLAS/FORT WORTH METROPLEX

CITY           SKY/WX    TMP DP  RH WIND       PRES   REMARKS
DFW AIRPORT    PTSUNNY   80  73  79 S14       29.92R
DALLAS LOVE    PTSUNNY   80  72  76 S10       29.93R
FTW MEACHAM    MOSUNNY   79  75  87 S10       29.92R
DAL-EXECUTIVE  CLOUDY    78  73  84 S8        29.93R
FTW-ALLIANCE   PTSUNNY   77  73  87 S12       29.92R
FTW-NAS-JRB    MOSUNNY   79  72  79 S14       29.93R
FTW-SPINKS     PTSUNNY   79  73  83 S9        29.95R
ARLINGTON      CLOUDY    78  74  87 S13G18    29.93R
GRAND PRAIRIE  CLOUDY    77  72  83 S9G16     29.94R
ADDISON        CLOUDY    79  72  78 S7G16     29.94R
MESQUITE       CLOUDY    77  73  88 S12       29.94S
LANCASTER      CLOUDY    77  72  84 S10       29.95S
$$

TXZ091>094-102>105-117-120-121-131>134-191500-
NORTH CENTRAL TEXAS

CITY           SKY/WX    TMP DP  RH WIND       PRES   REMARKS
SHRMAN/DENISON PTSUNNY   75  73  91 S10       29.95R
GAINESVILLE    PTSUNNY   76  73  87 S10       29.94R
BOWIE          SUNNY     78  73  86 S10       29.92R
BRIDGEPORT     PTSUNNY   78  72  81 S8        29.93R
DECATUR        PTSUNNY   77  72  84 S10G17    29.92R
DENTON         MOSUNNY   77  74  90 S13       29.92R
MCKINNEY       CLOUDY    77  74  90 S13       29.94R
BONHAM         CLOUDY    73  72  94 S10       29.95R
GREENVILLE     CLOUDY    81  73  78 S12       29.96R
ROCKWALL       CLOUDY    77  74  90 S15G25    29.95R
TERRELL        CLOUDY    77  72  84 S12       29.96R
WAXAHACHIE     CLOUDY    77  74  92 S9        29.95S
CLEBURNE       PTSUNNY   77  77 100 S10G17    29.96R
GRANBURY       CLOUDY    77  73  87 SE10      29.94R
$$

TXZ083>090-098>101-113>116-127>130-139>142-154-155-191500-
WESTERN NORTH TEXAS

CITY           SKY/WX    TMP DP  RH WIND       PRES   REMARKS
WICHITA FALLS  MOSUNNY   78  71  79 S13       29.88R
WF-KICKAPOO    MOSUNNY   79  72  78 S14G21    29.91R
VERNON         SUNNY     76  65  68 S10       29.86S
ABILENE        MOSUNNY   78  71  79 S15       29.94R
ABILENE-DYESS  MOSUNNY   80  71  71 S17       29.92R
GRAHAM         CLOUDY    79  71  76 S7        29.90R
BRECKENRIDGE   SUNNY     80  69  68 SW10G20   29.92R
CISCO          SUNNY     75  72  88 S12       29.95R
EASTLAND       SUNNY     77  71  81 S9        29.94R
RANGER         SUNNY     75  71  85 S10G16    29.94R
MINERAL WELLS  MOSUNNY   76  73  91 SE8       29.91R
STEPHENVILLE   SUNNY     74  71  91 S7        29.97R
COMANCHE       SUNNY     79  72  79 S12G17    29.95R
BROWNWOOD      MOSUNNY   77  70  78 S8        29.96R
COLEMAN        MOSUNNY   78  69  74 S12       29.96R
$$

TXZ143>147-156>162-174-175-191500-
CENTRAL TEXAS

CITY           SKY/WX    TMP DP  RH WIND       PRES   REMARKS
WACO           PTSUNNY   79  75  87 S15       29.94S
WACO-TSTC      PTSUNNY   81  75  83 S6        29.95R FOG
WACO-MCGREGOR  MOSUNNY   79  75  87 S14       29.95S
HILLSBORO      CLOUDY    79  74  84 S13G18    29.95R
CORSICANA      PTSUNNY   78  75  90 S13       29.96S
MEXIA          CLOUDY    77  74  91 S8        29.96R
HEARNE         PTSUNNY   79  78  97 SE10      29.97S
CAMERON        CLOUDY    79  76  91 S10       29.96R
TEMPLE         PTSUNNY   79  75  87 S15       29.96R
KILLEEN        SUNNY     79  75  89 S13       29.96R
FORT HOOD      PTSUNNY   75  72  88 S10       29.93R
GATESVILLE     MOSUNNY   77  73  88 S7        29.97R
HAMILTON       MOSUNNY   76  75  98 S13       29.97R
LAMPASAS       SUNNY     76  73  91 S6        29.96R
$$

TXZ095>097-106>112-122>126-135>138-148>153-164>167-191500-
EAST TEXAS

CITY           SKY/WX    TMP DP  RH WIND       PRES   REMARKS
PARIS          CLOUDY    74  73  97 S8        29.96S FOG
SULPHUR SPRNGS CLOUDY    78  73  86 SW12      29.98R
MOUNT PLEASANT CLOUDY    75  73  93 S3        29.98R
GILMER         CLOUDY    75  73  92 S5        29.97R
MINEOLA        MOSUNNY   77  73  88 S7        29.96R
TYLER          PTSUNNY   77  74  90 SW10      29.96S
LONGVIEW       CLOUDY    77  75  93 S9        29.96S
MARSHALL       CLOUDY    73  71  94 MISG      30.00S
ATHENS         PTSUNNY   77  73  88 S3        29.96R
PALESTINE      CLOUDY    76  75  99 S8        29.98S
JACKSONVILLE   CLOUDY    76  75  99 S6        30.00S
HENDERSON      CLOUDY    77  74  90 S3        29.99R
CENTER         CLOUDY    80  78  94 S3        30.00R
NACOGDOCHES    CLOUDY    77  75  94 S3        29.99R
LUFKIN         CLOUDY    77  76  96 SE3       29.98R
$$

SUPPLEMENTAL OBSERVATIONS (NWS FORT WORTH AREA)

CITY           SKY/WX    TMP DP  RH WIND       PRES   REMARKS
DENISON DAM      N/A     75  72  88 S6          N/A
CADDO GRASSLND   N/A     75  70  83 S10         N/A
PAT MAYSE LAKE   N/A     75  73  94 S10         N/A
GREENVILLE       N/A     79  73  83 SW9         N/A
CEDAR HILL       N/A     79  72  78 S8          N/A
LBJ GRASSLAND    N/A     77  72  83 S8          N/A
POSSUM KINGDOM   N/A     81  70  69 S9          N/A
GRANBURY         N/A     77  72  83 SE12        N/A
MCGREGOR         N/A     81  73  78 S13         N/A
TEMPLE           N/A     79  73  83 S9          N/A
ATHENS           N/A     77  75  94 S7          N/A
$$

SUPPLEMENTAL OBSERVATIONS (NWS NORMAN AREA)

CITY           SKY/WX    TMP DP  RH WIND       PRES   REMARKS
GOODLETT         N/A     76  64  65 S10       29.84S
ODELL            N/A     76  69  78 SE13      29.87S
CROWELL          N/A     79  65  62 S17       29.87R
KNOX CITY        N/A     79  63  57 S14       29.88S
SEYMOUR          N/A     80  68  66 S15       29.88S
MILLERS CREEK    N/A     79  70  73 S10         N/A
$$

SUPPLEMENTAL OBSERVATIONS (NWS SAN ANGELO AREA)

CITY           SKY/WX    TMP DP  RH WIND       PRES   REMARKS
WEINERT          N/A     78  67  69 S10       29.89S
HASKELL          N/A     77  65  65 S12       29.89S
THROCKMORTON     N/A     77  71  80 S7        29.91S
STAMFORD         N/A     80  70  70 S20       29.91S
CLYDE            N/A     77  70  80 S10       29.97R
HAMBY            N/A     81  70  69 S15         N/A
IVIE RESERVOIR   N/A     81  70  69 S12         N/A
COLORADO BEND    N/A     79  70  73 S9          N/A
$$

SUPPLEMENTAL OBSERVATIONS (NWS SHREVEPORT AREA)

CITY           SKY/WX    TMP DP  RH WIND       PRES   REMARKS
CLARKSVILLE      N/A     75  72  88 S6          N/A
TEXARKANA        N/A     75  70  83 SE3         N/A
LINDEN           N/A     75  72  88 S3          N/A
CADDO LAKE       N/A     73  72  94 CALM        N/A
GILMER           N/A     75  70  83 SW5         N/A
HENDERSON        N/A     77  75  94 SW7         N/A
LUFKIN           N/A     79  77  94 MISG        N/A
N SABINE NF      N/A     75  73  94 MISG        N/A
S SABINE NF      N/A     75  73  94 CALM        N/A
$$

SUPPLEMENTAL OBSERVATIONS ARE A COLLECTION OF AUTOMATED INSTRUMENTS
THAT ARE MAINTAINED BY A VARIETY OF FEDERAL AND STATE AGENCIES.
CERTAIN ELEMENTS...SUCH AS HUMIDITY VALUES AND SUSTAINED WIND
SPEEDS...MAY BE APPROXIMATED.





USA.gov is the U.S. government's official web portal to all federal, state and local government web resources and services.